DELTA 1 DEB, 21318

Orbit data source: Space-Track

DELTA 1 DEB, 21318 is space debris in SSO originally from a launch on Thu, 12 Jun 1975 UTC launched from the Air Force Western Test Range (AFWTR). Debris objects in space refer to the collection of defunct objects orbiting the Earth. Examples of debris include non-operational satellites, rocket bodies, and fragments generated from explosions, collisions, or faulty payload assembly.

Loading next visibility...
DELTA 1 DEB details
Identifier
21318, 1975-052AL
Orbit
SSO
Last TLE update11 hours ago
Origin
Flag of USGSFC (US)
ManufacturerUnknown
MissionSpacecraft
Bus & MotorUnknown
MassUnknown
Launch date (UTC)
1975-06-12 (50 years ago)
Launch vehicleUnknown
Launch site
Air Force Western Test Range (AFWTR)
Object type
Payload
Rocket body
Debris
Shape & HBRUnknown
Radar Cross SectionSmall (<0.1 m²)

Expand to show TLE details & history

TLE from 11 hours ago
0 DELTA 1 DEB
1 21318U 75052AL  24361.10009556  .00197449  00000-0  19631-1 0  9991
2 21318  99.3422 306.2722 0060407 323.9390  99.6164 14.89268936712397
Epoch: 2024-12-26T02:24Z
Definitive object data (Epoch: 2024-12-26T02:24:08.256Z)
Latitude62.80079°
Longitude156.58849°
Altitude618.254 km
Speed7.552 km/s
True Right ascension19h 10m 49s
True Declination62° 39' 28"
Sunlit
Object was in daylight at TLE epoch
Visualization TLE readout
Latitude-68.78265°
Longitude-29.25646°
Altitude612.14 km
Speed7.559 km/s
Apparent Right ascension02h 12m 08s
Apparent Declination-63° 46' 02"
Sunlit
Object is in daylight
Visualization observer readout
Local Sidereal Time12:16:39
Azimuth205.896° SW
Elevation-60.746°
Doppler factor1
Orbital elements
Apogee altitude639.454 km
Perigee altitude555.181 km
Semi-major axis6,975.454 km
Eccentricity0.0060407
Inclination99.3422°
RAAN306.2722°
Arg. of periapsis323.939°
True anomaly100.29801°
Mean anomaly99.6164°
Eccentric anomaly99.95729°
Mean motion3.7255 °/min
BSTAR0.019631
Orbital period96.63 mins
Loading maneuver chart data...
Loading historical data...
Loading historical data...
Loading historical data...
Loading historical data...
Loading historical data...
Loading historical data...
Loading historical data...

DELTA 1 DEB Visibility forecast

Observer location: undefined°, undefined

Span
Click to sort rows by Start time (UTC) header in descending order
Start Az.
Max El. time (UTC)
Max El. Az.
Max El.
End time (UTC)
End Az.
7 mins2024-12-26 19:59:03.741Z134.766° SE2024-12-26 20:02:03.741Z82.243° E31.051°2024-12-26 20:06:03.741Z3.133° NNE
6 mins2024-12-27 09:20:03.741Z28.771° NE2024-12-27 09:23:03.741Z131.905° SE40.165°2024-12-27 09:26:03.741Z180.778° SSW
|